Weather History for KBJI - August, 2013

Change the Weather History Date:

Tuesday, August 27, 2013

  Actual Average Record
Temperature  
Mean Temperature 74 °F -  
Max Temperature 87 °F 76 °F 96 °F (1984)
Min Temperature 60 °F 51 °F 35 °F (1982)
Cooling Degree Days 8    
Growing Degree Days 24 (Base 50)    
Moisture  
Dew Point 65 °F    
Average Humidity 79    
Maximum Humidity 100    
Minimum Humidity 45    
Precipitation  
Precipitation 0.16 in - - ()
Sea Level Pressure  
Sea Level Pressure 29.91 in    
Wind  
Wind Speed 3 mph (East)    
Max Wind Speed 8 mph    
Max Gust Speed -    
Visibility 7 miles    
Events Fog , Rain    
Averages and records for this station are not official NWS values.
T = Trace of Precipitation, MM = Missing Value Source: NWS Daily Summary

Daily Weather History Graph

Daily Weather History Graph

Search for Another Location

Airport or City:

Trip Planner

Search our weather history database for the weather conditions in past years. The results will help you decide how hot, cold, wet, or windy it might be!

Date:

Astronomy

Aug. 27, 2013 Rise Set
Actual Time 6:32 AM CDT 8:09 PM CDT
Civil Twilight 5:59 AM CDT 8:41 PM CDT
Nautical Twilight 5:20 AM CDT 9:20 PM CDT
Astronomical Twilight 4:37 AM CDT 10:03 PM CDT
Moon 11:31 PM CDT (8/27) 2:02 PM CDT (8/27)
Length of Visible Light 14h 41m
Length of Day
13h 37m
Waning Gibbous, 57% of the Moon is Illuminated
Aug 27
Waning Gibbous
Aug 28
Last Quarter
Sep 5
New
Sep 12
First Quarter
Sep 19
Full

Hourly Weather History & Observations

Time (CDT) Temp. Heat Index Dew Point Humidity Pressure Visibility Wind Dir Wind Speed Gust Speed Precip Events Conditions
12:14 AM 68.9 °F - 66.4 °F 92% 29.89 in 10.0 mi SE 8.1 mph - 0.08 in Rain Rain
12:33 AM 68.2 °F - 66.2 °F 93% 29.89 in 10.0 mi ESE 6.9 mph - 0.15 in   Scattered Clouds
12:53 AM 68.7 °F - 67.1 °F 95% 29.88 in 10.0 mi ESE 6.9 mph - 0.15 in   Mostly Cloudy
1:14 AM 69.1 °F - 67.5 °F 95% 29.88 in 10.0 mi ESE 6.9 mph - N/A   Overcast
1:33 AM 68.9 °F - 67.3 °F 95% 29.87 in 10.0 mi East 6.9 mph - N/A   Mostly Cloudy
1:53 AM 68.5 °F - 67.5 °F 96% 29.87 in 10.0 mi ESE 4.6 mph - N/A   Clear
2:14 AM 68.2 °F - 67.3 °F 97% 29.87 in 10.0 mi Calm Calm - N/A   Clear
2:33 AM 67.5 °F - 66.9 °F 98% 29.87 in 2.0 mi Calm Calm - N/A   Clear
2:54 AM 65.7 °F - 65.3 °F 99% 29.87 in 0.5 mi Calm Calm - N/A Fog Fog
3:13 AM 64.8 °F - 64.6 °F 99% 29.86 in 0.2 mi Calm Calm - N/A Fog Fog
3:33 AM 64.6 °F - 64.4 °F 99% 29.86 in 0.2 mi Calm Calm - N/A Fog Fog
3:54 AM 63.3 °F - 63.0 °F 99% 29.86 in 0.2 mi Calm Calm - N/A Fog Fog
4:13 AM 63.1 °F - 62.8 °F 99% 29.86 in 0.2 mi Calm Calm - N/A Fog Fog
4:33 AM 62.2 °F - 62.1 °F 99% 29.86 in 0.2 mi Calm Calm - N/A Fog Fog
4:54 AM 61.7 °F - 61.7 °F 100% 29.87 in 0.2 mi Calm Calm - N/A Fog Fog
5:13 AM 62.6 °F - 62.4 °F 99% 29.86 in 0.2 mi Calm Calm - N/A Fog Fog
5:33 AM 60.8 °F - 60.8 °F 100% 29.86 in 0.2 mi Calm Calm - N/A Fog Fog
5:54 AM 61.9 °F - 61.5 °F 99% 29.87 in 0.2 mi Calm Calm - N/A Fog Fog
6:13 AM 60.3 °F - 60.3 °F 100% 29.87 in 0.2 mi Calm Calm - N/A Fog Fog
6:33 AM 61.3 °F - 61.3 °F 100% 29.88 in 0.2 mi Calm Calm - N/A Fog Fog
6:54 AM 61.3 °F - 61.2 °F 99% 29.88 in 0.2 mi Calm Calm - N/A Fog Fog
7:13 AM 61.5 °F - 61.5 °F 100% 29.89 in 0.2 mi Calm Calm - 0.01 in Fog Fog
7:33 AM 63.7 °F - 63.7 °F 100% 29.90 in 0.2 mi Calm Calm - 0.01 in Fog Fog
7:54 AM 65.5 °F - 65.5 °F 100% 29.90 in 0.2 mi Calm Calm - 0.01 in Fog Fog
8:13 AM 66.2 °F - 66.2 °F 100% 29.90 in 0.2 mi Calm Calm - N/A Fog Fog
8:33 AM 66.7 °F - 66.6 °F 99% 29.90 in 0.2 mi NNE 3.5 mph - N/A Fog Fog
8:54 AM 67.3 °F - 67.3 °F 100% 29.90 in 0.2 mi Calm Calm - N/A Fog Fog
9:13 AM 68.4 °F - 68.2 °F 99% 29.90 in 0.2 mi Calm Calm - N/A Fog Fog
9:33 AM 68.7 °F - 68.7 °F 100% 29.91 in 1.2 mi Calm Calm - N/A   Overcast
9:54 AM 69.4 °F - 69.4 °F 100% 29.92 in 7.0 mi ENE 3.5 mph - N/A   Overcast
10:14 AM 70.5 °F - 69.6 °F 97% 29.92 in 10.0 mi Calm Calm - N/A   Overcast
10:33 AM 71.1 °F - 69.3 °F 94% 29.92 in 10.0 mi NE 3.5 mph - N/A   Mostly Cloudy
10:53 AM 72.9 °F - 69.3 °F 88% 29.92 in 10.0 mi NNE 3.5 mph - N/A   Scattered Clouds
11:14 AM 75.0 °F - 70.0 °F 84% 29.93 in 10.0 mi NNE 3.5 mph - N/A   Clear
11:33 AM 76.3 °F - 69.4 °F 79% 29.93 in 10.0 mi East 4.6 mph - N/A   Clear
11:53 AM 79.0 °F - 69.1 °F 72% 29.92 in 10.0 mi East 5.8 mph - N/A   Clear
12:13 PM 79.3 °F - 67.8 °F 68% 29.92 in 10.0 mi East 4.6 mph - N/A   Clear
12:33 PM 80.6 °F 83.1 °F 67.5 °F 64% 29.92 in 10.0 mi NE 4.6 mph - N/A   Clear
12:54 PM 81.9 °F 84.6 °F 67.8 °F 62% 29.92 in 10.0 mi SE 4.6 mph - N/A   Clear
1:14 PM 82.2 °F 84.4 °F 66.0 °F 58% 29.91 in 10.0 mi ESE 4.6 mph - N/A   Clear
1:33 PM 82.8 °F 84.2 °F 64.2 °F 53% 29.91 in 7.0 mi East 4.6 mph - N/A   Clear
1:53 PM 83.5 °F 85.3 °F 65.1 °F 54% 29.91 in 10.0 mi SE 4.6 mph - N/A   Clear
2:13 PM 84.2 °F 85.4 °F 63.5 °F 50% 29.91 in 10.0 mi Calm Calm - N/A   Clear
2:33 PM 84.6 °F 85.4 °F 63.0 °F 48% 29.91 in 10.0 mi ESE 5.8 mph - N/A   Clear
2:53 PM 85.5 °F 86.3 °F 63.3 °F 47% 29.91 in 7.0 mi Calm Calm - N/A   Clear
3:13 PM 86.2 °F 87.6 °F 64.4 °F 48% 29.91 in 10.0 mi ENE 4.6 mph - N/A   Clear
3:33 PM 86.4 °F 87.3 °F 63.5 °F 46% 29.90 in 10.0 mi ENE 3.5 mph - N/A   Clear
3:54 PM 86.7 °F 87.8 °F 63.7 °F 46% 29.90 in 10.0 mi Calm Calm - N/A   Clear
4:13 PM 86.9 °F 88.1 °F 63.7 °F 46% 29.90 in 10.0 mi ESE 5.8 mph - N/A   Clear
4:33 PM 87.1 °F 88.3 °F 63.9 °F 46% 29.91 in 7.0 mi SE 4.6 mph - N/A   Clear
4:54 PM 86.9 °F 88.1 °F 63.9 °F 46% 29.91 in 7.0 mi SE 3.5 mph - N/A   Clear
5:13 PM 86.7 °F 87.5 °F 63.0 °F 45% 29.91 in 10.0 mi Calm Calm - N/A   Clear
5:33 PM 87.1 °F 88.0 °F 63.7 °F 45% 29.91 in 10.0 mi Calm Calm - N/A   Clear
5:53 PM 87.1 °F 88.3 °F 64.2 °F 46% 29.92 in 7.0 mi ESE 3.5 mph - N/A   Clear
6:13 PM 86.7 °F 87.8 °F 63.7 °F 46% 29.92 in 10.0 mi Calm Calm - N/A   Clear
6:33 PM 85.5 °F 87.1 °F 64.9 °F 50% 29.92 in 10.0 mi ENE 3.5 mph - N/A   Clear
6:54 PM 86.0 °F 87.3 °F 64.4 °F 48% 29.92 in 10.0 mi Calm Calm - N/A   Clear
7:13 PM 84.9 °F 86.8 °F 65.5 °F 52% 29.92 in 10.0 mi NE 3.5 mph - N/A   Clear
7:33 PM 82.2 °F 84.7 °F 67.1 °F 60% 29.92 in 10.0 mi NE 6.9 mph - N/A   Clear
7:53 PM 80.6 °F 82.9 °F 67.1 °F 63% 29.92 in 10.0 mi NNE 3.5 mph - N/A   Clear
8:13 PM 78.3 °F - 66.7 °F 68% 29.93 in 10.0 mi Calm Calm - N/A   Clear
8:33 PM 76.3 °F - 66.2 °F 71% 29.93 in 10.0 mi Calm Calm - N/A   Clear
8:54 PM 72.1 °F - 67.5 °F 85% 29.93 in 10.0 mi Calm Calm - N/A   Clear
9:13 PM 71.8 °F - 66.4 °F 83% 29.93 in 10.0 mi Calm Calm - N/A   Clear
9:33 PM 69.3 °F - 65.3 °F 87% 29.95 in 10.0 mi Calm Calm - N/A   Clear
9:54 PM 72.1 °F - 66.2 °F 82% 29.94 in 10.0 mi Calm Calm - N/A   Clear
10:14 PM 71.6 °F - 65.3 °F 80% 29.96 in 10.0 mi Calm Calm - N/A   Clear
10:33 PM 69.4 °F - 65.1 °F 86% 29.97 in 10.0 mi Calm Calm - N/A   Clear
10:53 PM 69.4 °F - 65.3 °F 87% 29.97 in 10.0 mi Calm Calm - N/A   Clear
11:13 PM 68.9 °F - 65.3 °F 88% 29.97 in 10.0 mi Calm Calm - N/A   Clear
11:33 PM 67.5 °F - 64.8 °F 91% 29.97 in 10.0 mi Calm Calm - N/A   Clear